Radiation Dose at Monitoring Post of Fukushima Daini Nuclear Power Station
Date,Time,MP-1(microSv/h),MP-2(microSv/h),MP-3(microSv/h),MP-4(microSv/h),MP-5(microSv/h),MP-6(microSv/h),MP-7(microSv/h),Wind Direction,Wind Velocity(m/s),Rain
2016/02/27,00:00,0.461,0.268,0.481,0.433,0.400,0.217,0.192,southwest,4.6,No
2016/02/27,00:10,0.461,0.267,0.483,0.432,0.399,0.219,0.191,southwest,5.1,No
2016/02/27,00:20,0.462,0.267,0.483,0.433,0.397,0.218,0.192,southwest,6.2,No
2016/02/27,00:30,0.461,0.266,0.482,0.432,0.398,0.219,0.191,southwest,6.2,No
2016/02/27,00:40,0.462,0.265,0.480,0.433,0.397,0.218,0.191,southwest,5.0,No
2016/02/27,00:50,0.461,0.268,0.482,0.433,0.398,0.219,0.191,southwest,4.4,No
2016/02/27,01:00,0.461,0.266,0.483,0.432,0.399,0.219,0.190,southwest,3.9,No
2016/02/27,01:10,0.460,0.267,0.479,0.431,0.397,0.218,0.191,southwest,4.0,No
2016/02/27,01:20,0.461,0.267,0.481,0.431,0.397,0.218,0.190,southwest,3.7,No
2016/02/27,01:30,0.461,0.266,0.481,0.433,0.399,0.218,0.191,south-southwest,4.2,No
2016/02/27,01:40,0.460,0.266,0.483,0.434,0.398,0.219,0.191,south-southwest,3.4,No
2016/02/27,01:50,0.461,0.267,0.483,0.431,0.397,0.218,0.192,south-southwest,3.6,No
2016/02/27,02:00,0.462,0.266,0.482,0.432,0.396,0.217,0.190,south-southwest,3.3,No
2016/02/27,02:10,0.462,0.266,0.482,0.433,0.397,0.219,0.191,south-southeast,0.6,No
2016/02/27,02:20,0.461,0.266,0.482,0.434,0.398,0.218,0.191,south-southwest,3.0,No
2016/02/27,02:30,0.461,0.267,0.481,0.432,0.398,0.217,0.191,south-southwest,4.2,No
2016/02/27,02:40,0.462,0.267,0.479,0.431,0.399,0.218,0.190,south-southwest,3.8,No
2016/02/27,02:50,0.461,0.266,0.481,0.435,0.396,0.217,0.189,southwest,3.6,No
2016/02/27,03:00,0.462,0.267,0.482,0.432,0.398,0.218,0.191,south-southwest,3.4,No
2016/02/27,03:10,0.462,0.266,0.481,0.432,0.398,0.217,0.191,southwest,1.3,No
2016/02/27,03:20,0.462,0.267,0.481,0.432,0.398,0.219,0.191,west-northwest,1.0,No
2016/02/27,03:30,0.461,0.265,0.481,0.431,0.396,0.218,0.190,north-northwest,2.1,No
2016/02/27,03:40,0.464,0.266,0.481,0.432,0.399,0.218,0.191,northwest,1.9,No
2016/02/27,03:50,0.461,0.266,0.481,0.431,0.398,0.218,0.190,west-northwest,4.2,No
2016/02/27,04:00,0.462,0.266,0.480,0.431,0.396,0.217,0.190,west-northwest,4.3,No
2016/02/27,04:10,0.462,0.267,0.483,0.434,0.398,0.217,0.191,west,5.5,No
2016/02/27,04:20,0.463,0.267,0.482,0.432,0.398,0.218,0.190,west,5.6,No
2016/02/27,04:30,0.462,0.265,0.482,0.431,0.397,0.218,0.190,west,7.0,No
2016/02/27,04:40,0.461,0.268,0.481,0.431,0.396,0.218,0.191,west,6.4,No
2016/02/27,04:50,0.462,0.268,0.483,0.434,0.397,0.218,0.190,west,4.3,No
2016/02/27,05:00,0.461,0.267,0.481,0.433,0.397,0.218,0.191,west-southwest,4.4,No
2016/02/27,05:10,0.460,0.266,0.481,0.432,0.398,0.217,0.189,west,6.2,No
2016/02/27,05:20,0.463,0.266,0.479,0.432,0.396,0.218,0.191,west-southwest,4.9,No
2016/02/27,05:30,0.460,0.267,0.480,0.434,0.396,0.218,0.190,west-southwest,6.0,No
2016/02/27,05:40,0.462,0.267,0.480,0.432,0.397,0.219,0.190,west-southwest,6.5,No
2016/02/27,05:50,0.461,0.265,0.481,0.432,0.398,0.218,0.190,west,7.1,No
2016/02/27,06:00,0.461,0.265,0.481,0.431,0.398,0.218,0.191,west-northwest,6.6,No
2016/02/27,06:10,0.462,0.266,0.482,0.432,0.397,0.218,0.190,west,6.2,No
2016/02/27,06:20,0.461,0.266,0.484,0.432,0.395,0.217,0.190,west,4.6,No
2016/02/27,06:30,0.460,0.266,0.482,0.430,0.397,0.218,0.190,west,4.1,No
2016/02/27,06:40,0.460,0.267,0.479,0.431,0.399,0.218,0.190,west-southwest,4.1,No
2016/02/27,06:50,0.462,0.266,0.483,0.431,0.398,0.218,0.190,west-northwest,2.6,No
2016/02/27,07:00,0.461,0.265,0.483,0.434,0.397,0.217,0.190,north,1.2,No
2016/02/27,07:10,0.461,0.266,0.480,0.431,0.396,0.217,0.190,northwest,0.8,No
2016/02/27,07:20,0.461,0.267,0.481,0.431,0.399,0.218,0.190,west-northwest,2.7,No
2016/02/27,07:30,0.463,0.266,0.480,0.431,0.398,0.218,0.190,northwest,2.4,No
2016/02/27,07:40,0.462,0.266,0.482,0.431,0.396,0.217,0.189,west-northwest,3.7,No
2016/02/27,07:50,0.462,0.266,0.480,0.431,0.396,0.217,0.189,west-northwest,4.8,No
2016/02/27,08:00,0.461,0.267,0.481,0.432,0.397,0.218,0.190,northwest,6.3,No
2016/02/27,08:10,0.462,0.266,0.482,0.432,0.399,0.218,0.190,northwest,6.1,No
2016/02/27,08:20,0.462,0.266,0.482,0.430,0.398,0.218,0.190,northwest,4.2,No
2016/02/27,08:30,0.462,0.266,0.480,0.432,0.397,0.218,0.190,northwest,3.3,No
2016/02/27,08:40,0.462,0.266,0.481,0.431,0.398,0.218,0.190,northwest,3.6,No
2016/02/27,08:50,0.462,0.267,0.482,0.431,0.400,0.217,0.190,northwest,2.7,No
2016/02/27,09:00,0.462,0.266,0.480,0.431,0.397,0.218,0.191,north-northwest,4.8,No
2016/02/27,09:10,0.463,0.266,0.481,0.431,0.397,0.217,0.190,north-northwest,2.9,No
2016/02/27,09:20,0.463,0.265,0.482,0.431,0.399,0.218,0.190,north-northwest,2.7,No
2016/02/27,09:30,0.464,0.266,0.481,0.431,0.397,0.217,0.190,west-northwest,3.4,No
2016/02/27,09:40,0.459,0.266,0.479,0.429,0.395,0.217,0.190,north-northwest,2.6,No
2016/02/27,09:50,0.461,0.265,0.480,0.431,0.397,0.219,0.190,west,1.3,No
2016/02/27,10:00,0.459,0.266,0.483,0.428,0.396,0.217,0.190,west-northwest,5.0,No
2016/02/27,10:10,0.459,0.265,0.481,0.431,0.399,0.218,0.191,west-northwest,3.7,No
2016/02/27,10:20,0.459,0.267,0.480,0.430,0.398,0.217,0.190,west-northwest,1.9,No
2016/02/27,10:30,0.460,0.266,0.481,0.434,0.400,0.218,0.190,northwest,2.5,No
2016/02/27,10:40,0.461,0.265,0.480,0.428,0.397,0.217,0.191,east,3.7,No
2016/02/27,10:50,0.459,0.267,0.483,0.432,0.398,0.218,0.191,east-southeast,3.6,No
2016/02/27,11:00,0.464,0.265,0.479,0.428,0.400,0.217,0.191,east,2.9,No
2016/02/27,11:10,0.459,0.266,0.478,0.432,0.399,0.217,0.191,east-southeast,1.7,No
2016/02/27,11:20,0.462,0.266,0.482,0.429,0.403,0.219,0.192,east-southeast,2.7,No
2016/02/27,11:30,0.460,0.266,0.476,0.435,0.396,0.217,0.191,east,4.6,No
2016/02/27,11:40,0.461,0.267,0.479,0.431,0.400,0.218,0.192,east,4.5,No
2016/02/27,11:50,0.459,0.266,0.478,0.433,0.398,0.218,0.192,east-southeast,4.7,No
2016/02/27,12:00,0.463,0.266,0.482,0.432,0.400,0.218,0.192,east,4.5,No
2016/02/27,12:10,0.462,0.266,0.478,0.436,0.399,0.219,0.191,east-southeast,3.7,No
2016/02/27,12:20,0.461,0.265,0.482,0.432,0.398,0.219,0.190,east-southeast,4.4,No
2016/02/27,12:30,0.463,0.268,0.478,0.433,0.402,0.218,0.192,southeast,3.6,No
2016/02/27,12:40,0.461,0.267,0.483,0.432,0.398,0.218,0.191,east-southeast,4.8,No
2016/02/27,12:50,0.465,0.267,0.478,0.434,0.400,0.219,0.191,east-southeast,4.4,No
2016/02/27,13:00,0.461,0.267,0.482,0.433,0.398,0.217,0.191,east-southeast,2.4,No
2016/02/27,13:10,0.463,0.265,0.478,0.432,0.402,0.218,0.191,southeast,3.4,No
2016/02/27,13:20,0.460,0.268,0.484,0.433,0.398,0.220,0.191,southeast,5.6,No
2016/02/27,13:30,0.464,0.266,0.479,0.431,0.398,0.218,0.192,south-southeast,3.9,No
2016/02/27,13:40,0.461,0.268,0.482,0.435,0.402,0.218,0.192,south-southeast,4.4,No
2016/02/27,13:50,0.460,0.266,0.480,0.431,0.397,0.218,0.191,south-southeast,3.2,No
2016/02/27,14:00,0.465,0.266,0.481,0.435,0.402,0.218,0.192,southeast,4.0,No
2016/02/27,14:10,0.461,0.267,0.478,0.432,0.398,0.219,0.192,southeast,3.9,No
2016/02/27,14:20,0.463,0.266,0.484,0.433,0.399,0.218,0.193,south-southeast,3.8,No
2016/02/27,14:30,0.460,0.267,0.479,0.434,0.400,0.217,0.192,south,3.4,No
2016/02/27,14:40,0.463,0.266,0.483,0.434,0.399,0.219,0.191,south-southeast,5.3,No
2016/02/27,14:50,0.459,0.266,0.483,0.434,0.402,0.219,0.191,south-southeast,5.2,No
2016/02/27,15:00,0.462,0.268,0.481,0.435,0.399,0.218,0.193,south-southeast,4.2,No
2016/02/27,15:10,0.461,0.267,0.483,0.433,0.401,0.219,0.193,south-southeast,5.9,No
2016/02/27,15:20,0.462,0.268,0.482,0.435,0.399,0.218,0.191,south-southeast,6.9,No
2016/02/27,15:30,0.464,0.268,0.483,0.433,0.399,0.218,0.193,south-southeast,6.2,No
2016/02/27,15:40,0.461,0.267,0.483,0.432,0.400,0.218,0.191,south-southeast,6.6,No
2016/02/27,15:50,0.464,0.269,0.482,0.435,0.400,0.219,0.193,south-southeast,5.8,No
2016/02/27,16:00,0.462,0.267,0.483,0.434,0.399,0.218,0.192,south,6.5,No
2016/02/27,16:10,0.461,0.267,0.482,0.432,0.399,0.219,0.192,south-southeast,7.5,No
2016/02/27,16:20,0.464,0.266,0.482,0.434,0.400,0.219,0.192,south-southeast,5.3,No
2016/02/27,16:30,0.463,0.267,0.482,0.434,0.399,0.218,0.192,south,7.0,No
2016/02/27,16:40,0.461,0.266,0.481,0.432,0.398,0.219,0.192,south,6.4,No
2016/02/27,16:50,0.463,0.268,0.482,0.433,0.400,0.219,0.191,south,8.0,No
2016/02/27,17:00,0.464,0.267,0.483,0.433,0.397,0.218,0.192,south,8.2,No
2016/02/27,17:10,0.463,0.267,0.482,0.433,0.399,0.219,0.192,south,7.7,No
2016/02/27,17:20,0.465,0.267,0.482,0.432,0.399,0.218,0.192,south,8.9,No
2016/02/27,17:30,0.465,0.267,0.483,0.432,0.398,0.218,0.192,south,7.4,No
2016/02/27,17:40,0.463,0.268,0.484,0.431,0.398,0.217,0.192,south-southeast,6.4,No
2016/02/27,17:50,0.463,0.268,0.480,0.432,0.399,0.218,0.191,south,4.6,No
2016/02/27,18:00,0.463,0.267,0.483,0.433,0.400,0.218,0.192,south,7.4,No
2016/02/27,18:10,0.462,0.266,0.482,0.434,0.398,0.219,0.192,south-southeast,7.7,No
2016/02/27,18:20,0.461,0.266,0.481,0.434,0.399,0.218,0.192,south-southeast,6.9,No
2016/02/27,18:30,0.464,0.266,0.483,0.433,0.399,0.219,0.192,south,6.6,No
2016/02/27,18:40,0.464,0.267,0.485,0.434,0.398,0.219,0.192,south,6.3,No
2016/02/27,18:50,0.461,0.266,0.480,0.434,0.397,0.219,0.193,south,4.8,No
2016/02/27,19:00,0.463,0.266,0.482,0.432,0.398,0.219,0.192,south-southwest,6.0,No
2016/02/27,19:10,0.462,0.267,0.483,0.432,0.399,0.217,0.192,south,7.3,No
2016/02/27,19:20,0.462,0.267,0.482,0.433,0.399,0.219,0.192,south-southwest,7.7,No
2016/02/27,19:30,0.462,0.266,0.482,0.432,0.398,0.217,0.192,south-southwest,7.6,No
2016/02/27,19:40,0.464,0.267,0.481,0.432,0.398,0.218,0.191,south,6.9,No
2016/02/27,19:50,0.461,0.267,0.483,0.434,0.399,0.218,0.191,south-southwest,8.1,No
2016/02/27,20:00,0.462,0.266,0.482,0.435,0.399,0.217,0.192,south-southwest,8.3,No
2016/02/27,20:10,0.463,0.267,0.482,0.432,0.397,0.218,0.192,south-southwest,8.8,No
2016/02/27,20:20,0.464,0.267,0.484,0.434,0.398,0.218,0.192,south-southwest,9.8,No
2016/02/27,20:30,0.464,0.268,0.482,0.436,0.398,0.219,0.192,south-southwest,9.7,No
2016/02/27,20:40,0.464,0.267,0.481,0.433,0.396,0.219,0.191,south-southwest,10.9,No
2016/02/27,20:50,0.464,0.267,0.483,0.434,0.399,0.218,0.192,south-southwest,9.8,No
2016/02/27,21:00,0.463,0.268,0.482,0.433,0.398,0.220,0.191,south-southwest,9.5,No
2016/02/27,21:10,0.463,0.267,0.481,0.434,0.400,0.218,0.192,south-southwest,10.3,No
2016/02/27,21:20,0.463,0.266,0.483,0.432,0.398,0.218,0.193,south-southwest,10.4,No
2016/02/27,21:30,0.462,0.268,0.482,0.432,0.396,0.219,0.192,south-southwest,11.1,No
2016/02/27,21:40,0.462,0.267,0.481,0.435,0.399,0.219,0.192,south-southwest,11.2,No
2016/02/27,21:50,0.463,0.267,0.483,0.433,0.400,0.219,0.192,south-southwest,10.8,No
2016/02/27,22:00,0.463,0.268,0.483,0.433,0.398,0.219,0.192,south-southwest,11.2,No
2016/02/27,22:10,0.463,0.267,0.482,0.433,0.397,0.219,0.193,south-southwest,11.1,No
2016/02/27,22:20,0.461,0.266,0.480,0.434,0.397,0.218,0.191,south-southwest,11.8,No
2016/02/27,22:30,0.463,0.268,0.482,0.434,0.398,0.218,0.191,south-southwest,12.2,No
2016/02/27,22:40,0.463,0.268,0.484,0.431,0.398,0.218,0.192,south-southwest,11.1,No
2016/02/27,22:50,0.462,0.266,0.481,0.433,0.398,0.218,0.192,south-southwest,9.5,No
2016/02/27,23:00,0.462,0.266,0.481,0.434,0.398,0.218,0.193,south-southwest,8.0,No
2016/02/27,23:10,0.464,0.267,0.483,0.433,0.399,0.218,0.192,southwest,6.7,No
2016/02/27,23:20,0.462,0.267,0.483,0.434,0.397,0.218,0.192,southwest,4.1,No
2016/02/27,23:30,0.461,0.266,0.480,0.433,0.397,0.218,0.192,south-southwest,4.5,No
2016/02/27,23:40,0.463,0.267,0.483,0.433,0.399,0.219,0.193,west-southwest,3.6,No
2016/02/27,23:50,0.462,0.266,0.482,0.431,0.398,0.218,0.192,west-southwest,6.1,No
